SCP
0 0 0 0 -0 -0 -0 -0 0 0 0 0 0 0 0 0 0 0 0 0 0 0 0 0 0 -0 -0 -0 -0 -0 -0 -0 -0 -0 -0 -0 -0 -0 -0 -0 -0 -0 -0 -0 -0 -0 -0 -0 -0
0 0 0 0 -0 -0 -0 0 0 0 0 0 0 0 0 0 0 0 0 -0 -0 0 0 0 0 -0 -0 -0 -0 -0 -0 -0 -0 -0 -0 -0 -0 -0 -0 -0 -0 -0 -0 -0 -0 -0 -0 -0 -0
0 0 0 0 -0 -0 -0 0 0 0 0 0 0 -0 0 0 0 0 0 -0 -0 0 0 0 -0 -0 -0 -0 -0 -0 -0 -0 -0 -0 -0 -0 -0 -0 -0 -0 -0 -0 -0 -0 -0 -0 -0 -0 -0
0 0 0 0 -0 0 0 0 0 0 0 -0 0 0 0 0 0 0 0 -0 -0 -0 0 0 -0 -0 -0 -0 -0 -0 -0 -0 -0 -0 -0 -0 -0 -0 -0 -0 -0 -0 -0 -0 -0 -0 -0 -0 -0
0 0 0 0 0 0 0 -0 -0 0 0 0 0 0 0 -0 -0 0 -0 -0 -0 -0 0 -0 -0 -0 -0 -0 -0 -0 -0 -0 -0 -0 -0 -0 -0 -0 -0 -0 -0 -0 -0 -0 -0 -0 -0 -0 -0
0 0 0 0 0 0 -0 0 -0 0 0 0 -0 -0 0 -0 0 0 -0 -0 -0 -0 -0 -0 -0 -0 -0 -0 -0 -0 -0 -0 -0 -0 -0 -0 -0 -0 -0 -0 -0 -0 -0 -0 -0 -0 -0 -0 -0
0 0 0 0 0 0 0 0 0 -0 -0 0 -0 -0 0 0 0 0 0 0 0 -0 -0 -0 -0 -0 -0 -0 -0 -0 -0 -0 -0 -0 -0 -0 -0 -0 -0 -0 -0 -0 -0 -0 -0 -0 -0 -0 -0
0 0 0 0 0 0 0 0 0 -0 0 -0 -0 -0 -0 -0 -0 -0 0 0 0 -0 -0 -0 -0 0 0 -0 -0 -0 -0 -0 -0 -0 -0 -0 -0 -0 -0 -0 -0 -0 -0 -0 -0 -0 -0 -0 -0
0 0 0 0 0 0 0 0 -0 0 -0 0 -0 -0 -0 -0 -0 -0 0 0 0 0 -0 -0 -0 -0 0 0 -0 -0 -0 -0 -0 -0 -0 -0 0 0 0 0 -0 -0 -0 -0 -0 -0 -0 -0 -0
0 0 0 0 0 0 0 0 0 0 0 0 0 0 0 -0 -0 -0 -0 -0 -0 -0 -0 -0 -0 -0 -0 0 0 0 0 0 0 0 0 0 0 0 0 0 0 0 0 0 -0 -0 0 0 0
0 0 0 0 0 0 0 0 0 0 0 0 0 0 0 0 -0 -0 -0 -0 -0 -0 -0 -0 -0 -0 -0 0 0 0 0 0 0 0 0 0 0 0 0 0 0 0 0 0 0 0 0 0 0
0 0 0 0 0 0 0 0 0 0 0 0 0 0 0 -0 -0 -0 -0 -0 -0 -0 -0 -0 -0 -0 -0 0 0 0 0 0 0 0 0 0 0 0 0 0 0 0 0 0 0 0 0 0 0
0 0 0 0 0 0 0 0 0 0 0 0 0 0 0 -0 -0 -0 -0 -0 -0 -0 -0 -0 -0 -0 -0 -0 0 0 0 0 0 0 0 0 0 0 0 0 0 0 0 0 0 0 0 0 0
0 0 0 0 0 0 0 0 0 0 0 0 0 0 0 0 -0 0 0 -0 -0 -0 -0 -0 -0 -0 -0 -0 0 0 0 0 0 0 0 0 0 0 0 0 0 0 0 0 0 0 0 0 0
0 0 0 0 0 0 0 0 0 0 0 0 0 0 0 0 0 0 -0 -0 -0 -0 0 -0 -0 -0 -0 -0 0 0 0 0 0 0 0 0 0 0 0 0 0 0 0 0 0 0 0 0 0
0 0 0 0 0 0 0 0 0 0 0 0 0 0 0 0 0 0 0 0 0 0 -0 0 0 0 -0 0 0 0 0 0 0 0 0 0 0 0 0 0 0 0 0 0 0 0 0 0 0
0 0 0 0 0 0 0 0 0 0 0 0 0 0 0 0 0 0 0 0 0 0 0 0 0 0 -0 0 0 0 0 0 0 0 0 0 0 0 0 0 0 0 0 0 0 0 0 0 0
0 0 0 0 0 0 0 0 0 0 0 0 0 0 0 0 0 0 0 0 0 0 0 0 0 0 0 0 0 0 0 0 0 0 0 0 0 0 0 0 0 0 0 0 0 0 0 0 0
0 0 0 0 0 0 0 0 0 0 0 0 0 0 0 0 0 -0 -0 0 0 0 0 0 0 0 0 0 0 0 0 0 0 0 0 0 0 0 0 0 0 0 0 0 0 0 0 0 0
0 0 0 0 0 0 0 0 0 0 0 0 0 0 0 0 0 0 0 0 0 0 0 0 0 0 0 0 0 0 0 0 0 0 0 0 0 0 0 0 0 0 0 0 0 0 0 0 0
0 0 0 0 0 0 0 -0 0 0 0 0 0 0 0 0 0 0 0 0 0 0 0 0 0 0 0 0 0 0 0 0 0 0 0 0 0 0 0 0 0 0 0 0 0 0 0 0 0
0 0 0 0 0 0 0 -0 0 0 0 0 0 0 0 0 0 0 0 0 0 0 0 0 0 0 0 0 0 0 0 0 0 0 0 0 0 0 0 0 0 0 0 0 0 0 0 0 0
0 0 0 0 0 0 0 0 -0 0 0 0 0 0 0 0 0 0 0 0 0 0 0 0 0 0 0 0 0 0 0 0 0 0 0 0 0 0 0 0 0 0 0 0 0 0 0 0 0
0 0 0 0 0 0 0 0 0 -0 -0 0 0 0 0 0 0 0 0 0 0 0 0 0 0 0 0 0 0 0 0 0 0 0 0 0 0 0 0 0 0 0 0 0 0 0 0 0 0
0 0 0 0 0 0 0 0 0 0 0 0 0 0 0 0 0 0 0 0 0 0 0 0 0 0 0 0 0 0 0 0 0 0 0 0 0 0 0 0 0 0 0 0 0 0 0 0 0
0 0 0 0 0 0 0 0 0 0 0 0 0 0 0 0 0 0 0 0 0 0 0 0 0 0 0 0 0 0 0 0 0 0 0 0 0 0 0 0 0 0 0 0 0 0 0 0 0
0 0 0 0 0 0 0 0 0 0 0 0 0 0 0 0 0 0 0 0 0 0 0 0 0 0 0 0 0 0 0 0 0 0 0 0 0 0 0 0 0 0 0 0 0 0 0 0 0
0 0 0 0 0 0 0 0 0 0 0 0 0 0 0 0 0 0 0 0 0 0 0 0 0 0 0 0 0 0 0 0 0 0 0 0 0 0 0 0 0 0 0 0 0 0 0 0 0
0 0 0 0 0 0 0 0 0 0 0 0 0 0 0 0 0 0 0 0 0 0 0 0 0 0 0 0 0 0 0 0 0 0 0 0 0 0 0 0 0 0 0 0 0 0 0 0 0
0 0 0 0 0 0 0 0 0 0 0 0 0 0 0 0 0 0 0 0 0 0 0 0 0 0 0 0 0 0 0 0 0 0 0 0 0 0 0 0 0 0 0 0 0 0 0 0 0
Wind_Speed_500mb
15 10 4 3 7 9 2 7 3 4 4 4 11 9 15 10 6 7 26 42 45 46 43 32 29 25 22 20 18 18 18 20 21 20 21 20 22 21 20 24 24 27 30 31 27 28 25 24 26
14 7 3 6 8 6 7 7 10 6 11 30 23 18 7 3 6 14 45 38 41 45 41 35 31 27 24 22 20 19 18 19 19 20 21 21 24 24 15 18 20 21 26 30 27 27 27 26 27
9 7 5 8 7 9 9 8 12 8 16 5 8 9 8 10 11 30 34 39 43 44 39 35 31 28 25 22 20 18 17 18 19 19 20 22 27 24 14 11 16 17 22 23 22 22 22 22 25
8 7 8 8 6 7 8 13 13 13 7 3 18 9 6 9 13 27 41 38 40 43 40 37 33 29 26 21 19 17 17 17 17 17 18 21 26 22 16 8 13 15 18 18 18 21 20 20 23
9 5 7 7 4 4 3 17 29 8 9 10 10 8 5 16 17 22 30 39 38 45 42 40 35 31 27 22 18 17 16 16 16 16 16 18 20 19 13 5 7 10 14 14 16 17 17 18 19
4 5 8 5 4 4 0 24 16 11 12 12 10 15 9 24 16 20 26 40 35 41 43 42 38 33 28 24 20 17 15 14 14 14 14 16 17 16 11 6 3 6 11 12 13 14 13 14 18
8 8 10 8 10 5 11 19 11 15 14 11 18 10 6 26 23 19 25 34 34 37 43 44 41 37 31 28 23 19 16 14 13 12 12 13 11 10 7 5 3 13 15 14 13 13 13 14 15
3 9 7 3 8 8 10 15 13 22 13 10 20 8 8 30 28 26 33 31 33 34 42 45 44 41 37 33 28 24 20 17 14 13 11 9 7 6 6 4 4 12 15 15 14 12 11 12 13
5 9 4 10 10 7 16 6 11 10 17 17 18 9 6 34 33 40 42 42 38 38 41 46 47 45 41 37 33 29 25 22 19 18 15 12 9 7 7 7 8 12 13 15 13 11 9 8 8
8 8 16 6 6 6 11 6 15 9 12 12 16 17 14 40 41 46 53 54 51 48 47 46 44 47 45 43 39 36 32 29 25 22 19 16 12 8 9 10 12 13 14 15 15 12 9 6 4
7 10 10 5 7 10 10 5 4 12 7 22 29 26 27 43 48 50 51 52 50 49 48 49 41 44 49 49 46 42 39 35 32 28 26 20 17 10 6 13 15 16 15 12 12 10 8 5 3
8 6 10 12 6 7 8 3 4 19 13 7 23 20 29 42 49 52 54 54 55 53 51 47 43 42 43 51 50 47 45 42 39 35 32 26 24 15 8 12 14 14 11 10 10 9 7 5 3
5 7 8 8 8 4 5 6 11 25 26 20 21 15 27 37 40 46 49 54 59 59 55 56 51 50 45 43 52 53 51 48 43 40 38 34 32 24 19 14 17 13 11 12 9 6 7 6 4
11 9 8 7 4 5 5 3 3 3 3 29 32 28 30 38 38 42 53 55 62 63 63 61 64 60 53 47 48 52 54 51 48 47 44 40 36 35 28 24 21 20 15 12 12 13 12 12 11
11 7 4 9 6 3 4 8 17 27 22 13 19 34 39 41 42 51 49 56 56 62 64 68 68 67 64 58 52 53 50 50 52 51 50 46 43 43 37 36 27 31 20 22 25 25 22 22 19
8 10 3 3 10 3 7 16 10 6 13 13 21 23 27 36 45 49 50 58 59 62 66 65 68 71 70 66 59 58 58 52 52 51 53 51 49 48 47 41 35 37 33 32 37 38 34 30 29
12 6 7 9 15 5 6 12 8 8 8 7 14 21 26 31 41 47 48 52 58 62 65 68 70 72 72 69 65 62 63 66 56 55 55 57 54 53 53 52 48 45 50 44 38 46 44 39 38
12 7 7 6 9 4 6 18 18 28 29 38 44 47 49 53 59 52 53 53 51 55 63 65 70 72 74 73 70 69 70 70 70 64 61 61 61 58 59 59 57 56 58 58 53 50 51 49 45
10 8 7 4 3 7 13 14 23 47 49 54 56 61 63 65 63 60 59 54 56 56 64 70 71 72 75 82 85 83 80 78 76 74 66 64 63 66 67 65 64 67 66 62 66 61 57 56 55
5 5 5 7 3 8 8 21 21 27 44 60 64 70 63 43 27 24 25 48 56 57 60 63 73 73 74 77 80 87 82 80 77 76 73 68 66 68 72 74 73 69 71 71 72 71 67 69 65
6 9 7 10 5 5 9 17 12 11 22 34 38 42 42 41 48 42 28 26 38 49 53 57 60 70 74 77 84 89 91 90 84 82 80 72 65 69 69 74 75 74 76 77 75 77 77 79 76
9 12 8 7 6 7 3 11 11 11 19 15 50 47 50 38 20 13 16 19 27 28 37 47 49 57 70 76 82 81 83 88 86 86 82 70 70 72 69 71 76 80 79 82 81 79 81 84 89
12 7 6 6 7 4 7 2 14 6 12 24 26 26 19 3 7 7 6 5 13 15 15 25 36 44 58 70 74 76 78 82 83 79 79 80 71 73 77 74 80 79 81 82 82 83 86 94 88
18 12 14 9 5 5 15 14 11 8 11 5 14 30 27 9 6 8 7 8 4 8 14 17 24 33 41 53 62 66 68 72 71 74 75 71 68 67 72 75 78 78 81 87 89 86 89 93 96
7 13 3 6 3 12 4 4 15 18 4 7 13 24 22 12 7 6 4 4 4 6 9 12 17 24 27 34 40 47 53 59 64 64 64 64 64 64 65 70 73 79 82 87 83 100 94 90 99
14 16 12 15 9 7 7 12 12 5 14 4 12 18 23 12 2 3 4 6 11 17 20 21 18 16 19 26 32 37 40 43 45 46 51 54 56 56 52 55 64 71 78 81 83 87 93 94 99
13 12 10 12 6 7 9 12 21 9 11 14 34 43 40 35 23 14 13 15 14 13 8 8 10 13 15 18 20 18 19 21 22 27 35 40 42 43 46 52 58 65 72 80 85 92 96 95 100
13 15 7 4 6 8 8 8 11 4 10 7 21 35 33 32 32 24 16 16 14 11 7 4 9 12 12 11 10 6 3 7 12 17 20 29 35 39 44 49 55 60 66 73 79 85 87 90 95
6 7 5 10 10 11 3 12 12 14 13 18 15 22 23 21 22 27 25 21 17 15 12 14 17 17 13 8 5 5 8 14 18 22 25 32 40 44 48 50 53 57 59 61 67 75 80 85 85
4 13 13 10 9 7 6 18 4 17 22 29 16 16 15 14 11 15 20 19 16 13 9 9 5 9 7 10 14 17 21 27 30 34 39 42 46 49 52 58 60 60 59 60 63 69 73 76 80
Wind_Direction_500mb
229 214 227 284 64 69 159 242 221 139 140 134 137 152 143 88 162 208 154 162 165 167 166 168 163 154 145 134 116 107 105 106 105 110 116 114 113 103 87 79 69 90 99 101 95 96 101 100 99
222 193 187 130 94 84 266 251 161 196 134 115 99 101 84 126 141 151 154 165 170 169 169 168 165 160 150 140 130 121 118 110 107 114 118 121 117 108 93 80 69 92 98 100 101 100 97 89 87
195 186 197 96 110 162 185 206 174 130 153 190 102 78 118 143 174 159 168 166 171 176 175 172 172 167 156 148 137 128 123 116 111 109 120 122 123 116 121 92 67 99 105 109 110 105 98 86 82
179 169 71 86 148 226 208 183 156 140 136 131 132 85 128 157 173 161 167 168 171 179 180 179 180 176 168 160 145 139 134 126 115 110 108 117 125 128 135 116 76 97 115 119 117 114 103 93 85
189 125 61 87 307 286 237 161 148 153 154 137 147 185 147 158 167 175 181 178 175 182 184 184 185 183 178 173 160 153 144 133 124 117 113 121 126 136 151 129 60 89 124 128 128 126 119 102 91
157 102 70 140 221 306 337 157 157 158 153 152 129 147 158 182 191 186 184 181 183 188 187 190 191 191 188 186 180 170 161 151 139 131 127 135 142 152 169 172 100 133 148 147 143 142 136 104 100
130 84 171 146 174 166 204 182 195 160 155 195 163 133 224 190 196 194 181 183 187 194 198 195 196 195 195 196 194 189 181 173 163 152 145 152 153 156 164 156 113 155 155 151 152 148 134 116 104
145 93 110 189 190 198 160 162 189 165 191 171 181 192 226 189 183 184 187 191 194 201 204 201 201 201 201 201 201 200 195 192 187 181 171 166 166 171 181 183 130 162 154 151 161 157 138 119 107
129 67 158 197 157 188 151 154 170 175 160 178 200 219 218 183 186 185 189 195 203 205 206 207 208 208 209 207 205 205 205 204 202 196 188 184 183 189 206 201 177 172 163 159 164 158 141 117 109
96 111 206 211 180 172 152 187 165 161 157 200 205 215 195 184 193 193 197 201 206 207 204 208 213 215 213 213 212 212 212 212 212 208 202 193 199 203 210 205 192 184 173 167 165 159 152 137 118
146 167 185 186 142 142 139 152 191 156 226 214 218 211 193 188 196 203 209 213 214 211 212 210 214 219 219 218 217 217 217 217 215 214 212 214 204 203 224 204 195 187 180 170 168 167 171 170 148
114 149 169 166 147 138 157 216 240 220 229 253 225 226 216 199 202 210 215 218 218 218 219 219 221 220 225 225 224 225 224 222 222 219 218 220 207 208 227 205 194 187 183 184 181 180 183 180 161
121 162 165 172 173 213 210 231 251 252 249 239 198 214 218 222 224 226 227 225 223 224 225 227 228 226 229 231 227 230 230 229 228 225 225 222 218 217 222 211 201 207 201 195 211 211 216 219 214
157 137 144 222 199 206 228 202 304 259 141 233 233 239 235 235 239 239 230 229 229 229 230 230 230 232 234 240 236 233 233 233 232 230 230 227 225 220 225 219 222 212 217 230 235 242 244 242 237
115 105 338 226 221 239 185 287 235 253 273 247 234 237 238 239 243 243 246 241 237 235 233 232 232 233 235 241 244 238 238 238 234 232 231 231 230 225 225 225 227 221 238 235 243 241 245 237 244
71 54 125 275 150 201 113 266 277 258 245 224 238 252 252 246 250 252 250 247 244 241 238 236 234 234 235 239 242 240 239 242 237 233 233 235 233 232 229 233 240 235 239 249 252 245 240 244 247
6 178 207 316 203 124 138 265 276 183 172 235 267 259 253 257 260 259 256 253 249 246 244 240 237 237 236 238 241 242 242 243 243 241 236 238 236 234 235 238 237 244 240 237 255 246 246 244 242
195 189 229 221 211 161 180 258 279 263 269 272 279 274 269 267 267 267 260 258 256 249 247 244 241 240 239 239 240 240 241 244 244 247 243 240 240 238 238 238 243 244 241 241 241 243 244 242 241
151 149 181 236 144 165 235 262 269 277 288 281 276 276 277 276 283 274 257 251 251 251 250 245 241 238 238 236 235 236 237 239 242 246 247 246 246 245 242 242 243 246 245 249 245 244 240 239 237
127 111 267 292 41 170 320 272 261 265 265 270 278 282 280 282 288 308 278 244 245 249 251 250 246 240 238 240 242 240 243 245 246 248 252 249 249 252 247 246 245 248 249 246 249 247 246 240 241
202 174 200 226 10 36 354 292 290 284 262 279 277 276 279 281 297 289 274 257 246 247 249 250 249 245 242 240 241 242 241 243 243 243 247 252 250 256 251 252 251 249 251 251 253 252 250 249 244
174 206 154 148 71 236 41 284 296 278 299 292 275 284 293 295 300 318 291 265 247 252 250 245 247 244 243 241 241 243 247 246 249 250 249 250 256 256 259 254 253 256 253 252 252 253 254 251 251
205 116 126 84 106 43 331 49 271 297 284 269 318 2 1 7 89 51 13 316 251 249 255 245 245 244 242 241 243 245 246 249 253 255 253 253 258 258 258 257 259 259 260 259 257 255 251 254 251
143 80 47 55 91 295 208 176 275 224 215 338 344 352 10 17 16 6 0 0 329 264 266 256 242 240 239 238 242 246 250 254 257 257 259 262 261 261 264 261 261 265 265 267 264 265 257 256 251
92 92 342 339 357 228 100 120 250 264 10 264 307 348 360 339 312 324 341 336 310 294 294 286 265 253 244 240 243 248 252 255 259 262 264 265 265 265 262 262 260 260 264 266 263 260 254 257 250
192 157 163 201 201 259 87 234 252 186 69 65 48 38 37 17 276 331 321 289 291 294 288 286 282 264 246 241 245 250 253 253 254 257 260 263 266 268 266 262 263 265 266 264 263 263 267 266 265
192 208 164 104 27 56 224 288 307 80 96 82 70 57 51 51 50 33 338 323 318 312 297 269 251 245 246 249 251 252 250 253 258 260 262 265 268 270 270 264 259 256 257 260 263 264 265 266 267
162 159 83 4 155 250 264 259 224 158 113 63 45 49 46 52 44 34 7 352 349 346 349 84 111 118 120 127 130 140 208 257 268 274 288 289 286 282 276 272 268 264 260 258 259 261 264 266 268
146 183 101 131 153 181 240 254 224 159 154 100 58 47 40 44 44 40 40 43 61 83 104 114 111 111 116 138 176 228 263 274 278 285 286 287 287 288 287 285 278 272 269 264 261 262 265 266 267
212 204 154 163 215 243 172 257 6 140 133 92 71 66 60 50 52 44 39 43 65 75 87 104 69 54 4 303 293 288 285 284 288 290 289 287 287 287 287 282 281 280 275 271 266 265 265 266 266
Wind_Speed_850mb
15 10 4 3 7 9 2 7 3 4 4 4 11 9 15 10 6 7 26 42 45 46 43 32 29 25 22 20 18 18 18 20 21 20 21 20 22 21 20 24 24 27 30 31 27 28 25 24 26
14 7 3 6 8 6 7 7 10 6 11 30 23 18 7 3 6 14 45 38 41 45 41 35 31 27 24 22 20 19 18 19 19 20 21 21 24 24 15 18 20 21 26 30 27 27 27 26 27
9 7 5 8 7 9 9 8 12 8 16 5 8 9 8 10 11 30 34 39 43 44 39 35 31 28 25 22 20 18 17 18 19 19 20 22 27 24 14 11 16 17 22 23 22 22 22 22 25
8 7 8 8 6 7 8 13 13 13 7 3 18 9 6 9 13 27 41 38 40 43 40 37 33 29 26 21 19 17 17 17 17 17 18 21 26 22 16 8 13 15 18 18 18 21 20 20 23
9 5 7 7 4 4 3 17 29 8 9 10 10 8 5 16 17 22 30 39 38 45 42 40 35 31 27 22 18 17 16 16 16 16 16 18 20 19 13 5 7 10 14 14 16 17 17 18 19
4 5 8 5 4 4 0 24 16 11 12 12 10 15 9 24 16 20 26 40 35 41 43 42 38 33 28 24 20 17 15 14 14 14 14 16 17 16 11 6 3 6 11 12 13 14 13 14 18
8 8 10 8 10 5 11 19 11 15 14 11 18 10 6 26 23 19 25 34 34 37 43 44 41 37 31 28 23 19 16 14 13 12 12 13 11 10 7 5 3 13 15 14 13 13 13 14 15
3 9 7 3 8 8 10 15 13 22 13 10 20 8 8 30 28 26 33 31 33 34 42 45 44 41 37 33 28 24 20 17 14 13 11 9 7 6 6 4 4 12 15 15 14 12 11 12 13
5 9 4 10 10 7 16 6 11 10 17 17 18 9 6 34 33 40 42 42 38 38 41 46 47 45 41 37 33 29 25 22 19 18 15 12 9 7 7 7 8 12 13 15 13 11 9 8 8
8 8 16 6 6 6 11 6 15 9 12 12 16 17 14 40 41 46 53 54 51 48 47 46 44 47 45 43 39 36 32 29 25 22 19 16 12 8 9 10 12 13 14 15 15 12 9 6 4
7 10 10 5 7 10 10 5 4 12 7 22 29 26 27 43 48 50 51 52 50 49 48 49 41 44 49 49 46 42 39 35 32 28 26 20 17 10 6 13 15 16 15 12 12 10 8 5 3
8 6 10 12 6 7 8 3 4 19 13 7 23 20 29 42 49 52 54 54 55 53 51 47 43 42 43 51 50 47 45 42 39 35 32 26 24 15 8 12 14 14 11 10 10 9 7 5 3
5 7 8 8 8 4 5 6 11 25 26 20 21 15 27 37 40 46 49 54 59 59 55 56 51 50 45 43 52 53 51 48 43 40 38 34 32 24 19 14 17 13 11 12 9 6 7 6 4
11 9 8 7 4 5 5 3 3 3 3 29 32 28 30 38 38 42 53 55 62 63 63 61 64 60 53 47 48 52 54 51 48 47 44 40 36 35 28 24 21 20 15 12 12 13 12 12 11
11 7 4 9 6 3 4 8 17 27 22 13 19 34 39 41 42 51 49 56 56 62 64 68 68 67 64 58 52 53 50 50 52 51 50 46 43 43 37 36 27 31 20 22 25 25 22 22 19
8 10 3 3 10 3 7 16 10 6 13 13 21 23 27 36 45 49 50 58 59 62 66 65 68 71 70 66 59 58 58 52 52 51 53 51 49 48 47 41 35 37 33 32 37 38 34 30 29
12 6 7 9 15 5 6 12 8 8 8 7 14 21 26 31 41 47 48 52 58 62 65 68 70 72 72 69 65 62 63 66 56 55 55 57 54 53 53 52 48 45 50 44 38 46 44 39 38
12 7 7 6 9 4 6 18 18 28 29 38 44 47 49 53 59 52 53 53 51 55 63 65 70 72 74 73 70 69 70 70 70 64 61 61 61 58 59 59 57 56 58 58 53 50 51 49 45
10 8 7 4 3 7 13 14 23 47 49 54 56 61 63 65 63 60 59 54 56 56 64 70 71 72 75 82 85 83 80 78 76 74 66 64 63 66 67 65 64 67 66 62 66 61 57 56 55
5 5 5 7 3 8 8 21 21 27 44 60 64 70 63 43 27 24 25 48 56 57 60 63 73 73 74 77 80 87 82 80 77 76 73 68 66 68 72 74 73 69 71 71 72 71 67 69 65
6 9 7 10 5 5 9 17 12 11 22 34 38 42 42 41 48 42 28 26 38 49 53 57 60 70 74 77 84 89 91 90 84 82 80 72 65 69 69 74 75 74 76 77 75 77 77 79 76
9 12 8 7 6 7 3 11 11 11 19 15 50 47 50 38 20 13 16 19 27 28 37 47 49 57 70 76 82 81 83 88 86 86 82 70 70 72 69 71 76 80 79 82 81 79 81 84 89
12 7 6 6 7 4 7 2 14 6 12 24 26 26 19 3 7 7 6 5 13 15 15 25 36 44 58 70 74 76 78 82 83 79 79 80 71 73 77 74 80 79 81 82 82 83 86 94 88
18 12 14 9 5 5 15 14 11 8 11 5 14 30 27 9 6 8 7 8 4 8 14 17 24 33 41 53 62 66 68 72 71 74 75 71 68 67 72 75 78 78 81 87 89 86 89 93 96
7 13 3 6 3 12 4 4 15 18 4 7 13 24 22 12 7 6 4 4 4 6 9 12 17 24 27 34 40 47 53 59 64 64 64 64 64 64 65 70 73 79 82 87 83 100 94 90 99
14 16 12 15 9 7 7 12 12 5 14 4 12 18 23 12 2 3 4 6 11 17 20 21 18 16 19 26 32 37 40 43 45 46 51 54 56 56 52 55 64 71 78 81 83 87 93 94 99
13 12 10 12 6 7 9 12 21 9 11 14 34 43 40 35 23 14 13 15 14 13 8 8 10 13 15 18 20 18 19 21 22 27 35 40 42 43 46 52 58 65 72 80 85 92 96 95 100
13 15 7 4 6 8 8 8 11 4 10 7 21 35 33 32 32 24 16 16 14 11 7 4 9 12 12 11 10 6 3 7 12 17 20 29 35 39 44 49 55 60 66 73 79 85 87 90 95
6 7 5 10 10 11 3 12 12 14 13 18 15 22 23 21 22 27 25 21 17 15 12 14 17 17 13 8 5 5 8 14 18 22 25 32 40 44 48 50 53 57 59 61 67 75 80 85 85
4 13 13 10 9 7 6 18 4 17 22 29 16 16 15 14 11 15 20 19 16 13 9 9 5 9 7 10 14 17 21 27 30 34 39 42 46 49 52 58 60 60 59 60 63 69 73 76 80
Wind_Direction_850mb
229 214 227 284 64 69 159 242 221 139 140 134 137 152 143 88 162 208 154 162 165 167 166 168 163 154 145 134 116 107 105 106 105 110 116 114 113 103 87 79 69 90 99 101 95 96 101 100 99
222 193 187 130 94 84 266 251 161 196 134 115 99 101 84 126 141 151 154 165 170 169 169 168 165 160 150 140 130 121 118 110 107 114 118 121 117 108 93 80 69 92 98 100 101 100 97 89 87
195 186 197 96 110 162 185 206 174 130 153 190 102 78 118 143 174 159 168 166 171 176 175 172 172 167 156 148 137 128 123 116 111 109 120 122 123 116 121 92 67 99 105 109 110 105 98 86 82
179 169 71 86 148 226 208 183 156 140 136 131 132 85 128 157 173 161 167 168 171 179 180 179 180 176 168 160 145 139 134 126 115 110 108 117 125 128 135 116 76 97 115 119 117 114 103 93 85
189 125 61 87 307 286 237 161 148 153 154 137 147 185 147 158 167 175 181 178 175 182 184 184 185 183 178 173 160 153 144 133 124 117 113 121 126 136 151 129 60 89 124 128 128 126 119 102 91
157 102 70 140 221 306 337 157 157 158 153 152 129 147 158 182 191 186 184 181 183 188 187 190 191 191 188 186 180 170 161 151 139 131 127 135 142 152 169 172 100 133 148 147 143 142 136 104 100
130 84 171 146 174 166 204 182 195 160 155 195 163 133 224 190 196 194 181 183 187 194 198 195 196 195 195 196 194 189 181 173 163 152 145 152 153 156 164 156 113 155 155 151 152 148 134 116 104
145 93 110 189 190 198 160 162 189 165 191 171 181 192 226 189 183 184 187 191 194 201 204 201 201 201 201 201 201 200 195 192 187 181 171 166 166 171 181 183 130 162 154 151 161 157 138 119 107
129 67 158 197 157 188 151 154 170 175 160 178 200 219 218 183 186 185 189 195 203 205 206 207 208 208 209 207 205 205 205 204 202 196 188 184 183 189 206 201 177 172 163 159 164 158 141 117 109
96 111 206 211 180 172 152 187 165 161 157 200 205 215 195 184 193 193 197 201 206 207 204 208 213 215 213 213 212 212 212 212 212 208 202 193 199 203 210 205 192 184 173 167 165 159 152 137 118
146 167 185 186 142 142 139 152 191 156 226 214 218 211 193 188 196 203 209 213 214 211 212 210 214 219 219 218 217 217 217 217 215 214 212 214 204 203 224 204 195 187 180 170 168 167 171 170 148
114 149 169 166 147 138 157 216 240 220 229 253 225 226 216 199 202 210 215 218 218 218 219 219 221 220 225 225 224 225 224 222 222 219 218 220 207 208 227 205 194 187 183 184 181 180 183 180 161
121 162 165 172 173 213 210 231 251 252 249 239 198 214 218 222 224 226 227 225 223 224 225 227 228 226 229 231 227 230 230 229 228 225 225 222 218 217 222 211 201 207 201 195 211 211 216 219 214
157 137 144 222 199 206 228 202 304 259 141 233 233 239 235 235 239 239 230 229 229 229 230 230 230 232 234 240 236 233 233 233 232 230 230 227 225 220 225 219 222 212 217 230 235 242 244 242 237
115 105 338 226 221 239 185 287 235 253 273 247 234 237 238 239 243 243 246 241 237 235 233 232 232 233 235 241 244 238 238 238 234 232 231 231 230 225 225 225 227 221 238 235 243 241 245 237 244
71 54 125 275 150 201 113 266 277 258 245 224 238 252 252 246 250 252 250 247 244 241 238 236 234 234 235 239 242 240 239 242 237 233 233 235 233 232 229 233 240 235 239 249 252 245 240 244 247
6 178 207 316 203 124 138 265 276 183 172 235 267 259 253 257 260 259 256 253 249 246 244 240 237 237 236 238 241 242 242 243 243 241 236 238 236 234 235 238 237 244 240 237 255 246 246 244 242
195 189 229 221 211 161 180 258 279 263 269 272 279 274 269 267 267 267 260 258 256 249 247 244 241 240 239 239 240 240 241 244 244 247 243 240 240 238 238 238 243 244 241 241 241 243 244 242 241
151 149 181 236 144 165 235 262 269 277 288 281 276 276 277 276 283 274 257 251 251 251 250 245 241 238 238 236 235 236 237 239 242 246 247 246 246 245 242 242 243 246 245 249 245 244 240 239 237
127 111 267 292 41 170 320 272 261 265 265 270 278 282 280 282 288 308 278 244 245 249 251 250 246 240 238 240 242 240 243 245 246 248 252 249 249 252 247 246 245 248 249 246 249 247 246 240 241
202 174 200 226 10 36 354 292 290 284 262 279 277 276 279 281 297 289 274 257 246 247 249 250 249 245 242 240 241 242 241 243 243 243 247 252 250 256 251 252 251 249 251 251 253 252 250 249 244
174 206 154 148 71 236 41 284 296 278 299 292 275 284 293 295 300 318 291 265 247 252 250 245 247 244 243 241 241 243 247 246 249 250 249 250 256 256 259 254 253 256 253 252 252 253 254 251 251
205 116 126 84 106 43 331 49 271 297 284 269 318 2 1 7 89 51 13 316 251 249 255 245 245 244 242 241 243 245 246 249 253 255 253 253 258 258 258 257 259 259 260 259 257 255 251 254 251
143 80 47 55 91 295 208 176 275 224 215 338 344 352 10 17 16 6 0 0 329 264 266 256 242 240 239 238 242 246 250 254 257 257 259 262 261 261 264 261 261 265 265 267 264 265 257 256 251
92 92 342 339 357 228 100 120 250 264 10 264 307 348 360 339 312 324 341 336 310 294 294 286 265 253 244 240 243 248 252 255 259 262 264 265 265 265 262 262 260 260 264 266 263 260 254 257 250
192 157 163 201 201 259 87 234 252 186 69 65 48 38 37 17 276 331 321 289 291 294 288 286 282 264 246 241 245 250 253 253 254 257 260 263 266 268 266 262 263 265 266 264 263 263 267 266 265
192 208 164 104 27 56 224 288 307 80 96 82 70 57 51 51 50 33 338 323 318 312 297 269 251 245 246 249 251 252 250 253 258 260 262 265 268 270 270 264 259 256 257 260 263 264 265 266 267
162 159 83 4 155 250 264 259 224 158 113 63 45 49 46 52 44 34 7 352 349 346 349 84 111 118 120 127 130 140 208 257 268 274 288 289 286 282 276 272 268 264 260 258 259 261 264 266 268
146 183 101 131 153 181 240 254 224 159 154 100 58 47 40 44 44 40 40 43 61 83 104 114 111 111 116 138 176 228 263 274 278 285 286 287 287 288 287 285 278 272 269 264 261 262 265 266 267
212 204 154 163 215 243 172 257 6 140 133 92 71 66 60 50 52 44 39 43 65 75 87 104 69 54 4 303 293 288 285 284 288 290 289 287 287 287 287 282 281 280 275 271 266 265 265 266 266